{"data":{"norad_id":48696,"intl_designator":"2021-044BL","name":"STARLINK-2753","alt_names":[],"object_type":"PAYLOAD","status":"ACTIVE","operator":null,"country":"US","launch_date":"2021-05-26","launch_site_code":"AFETR","launch_vehicle":null,"mission":null,"orbit_class":"UNKNOWN","rcs_meters":null,"size_class":null,"mass_kg":null,"dimensions":null,"purposes":["comms"],"wikipedia_slug":null,"has_3d_model":false,"image_url":null,"decayed_at":null,"tle_current":{"epoch":"2026-05-25T02:31:00.781824Z","epoch_age_seconds":61996,"freshness":"FRESH","line1":"1 48696U 21044BL  26145.10487016  .00000044  00000+0  13184-4 0  9997","line2":"2 48696  53.1589  93.1809 0001445  92.7733 267.3434 15.31693183275880","mean_motion":15.31693183,"eccentricity":0.0001445,"inclination_deg":53.1589,"raan_deg":93.1809,"arg_perigee_deg":92.7733,"mean_anomaly_deg":267.3434,"bstar":1.3184e-5,"rev_number":27588,"period_min":94.013606379026,"perigee_km":469.77065076106,"apogee_km":471.74998208551,"semimajor_km":6848.8973164233,"source":"CELESTRAK","updated_at":"2026-05-25T13:38:16.763971Z"}}}